AA0PB Weather Reports


time (UTC)temp
C
wind
direction
speed
KPH
gust
KPH
rain 1hr
cm
rain 24hr
cm
rain mn
cm
humidity
%
barometer
mb
20260503215636 32 60 6.4 9.7 0.00 0.00 0.00 25 1009.7
20260503215132 32 278 4.8 8.0 0.00 0.00 0.00 25 1009.7
20260503214631 33 89 1.6 11.3 0.00 0.00 0.00 28 1009.6
20260503214126 33 350 1.6 9.7 0.00 0.00 0.00 26 1009.8
20260503213620 32 94 3.2 4.8 0.00 0.00 0.00 26 1009.9
20260503213116 31 163 3.2 9.7 0.00 0.00 0.00 29 1009.8
20260503212614 32 85 4.8 8.0 0.00 0.00 0.00 26 1009.9
20260503212111 32 145 4.8 8.0 0.00 0.00 0.00 26 1010.0
20260503211609 31 58 4.8 8.0 0.00 0.00 0.00 30 1010.0
20260503211104 32 81 3.2 8.0 0.00 0.00 0.00 27 1010.1
20260503210601 31 316 6.4 8.0 0.00 0.00 0.00 29 1010.2
20260503210056 32 0 3.2 4.8 0.00 0.00 0.00 30 1010.3
20260503205553 30 142 3.2 3.2 0.00 0.00 0.00 31 1010.4
20260503205050 31 25 6.4 11.3 0.00 0.00 0.00 31 1010.3
20260503204547 31 33 4.8 8.0 0.00 0.00 0.00 31 1010.2
20260503204044 31 157 3.2 8.0 0.00 0.00 0.00 31 1010.4
20260503203541 30 133 1.6 8.0 0.00 0.00 0.00 33 1010.6
20260503203038 30 126 9.7 9.7 0.00 0.00 0.00 32 1010.5
20260503202536 31 109 3.2 3.2 0.00 0.00 0.00 34 1010.7
20260503202034 31 150 0.0 4.8 0.00 0.00 0.00 33 1010.6
20260503201532 31 156 3.2 4.8 0.00 0.00 0.00 32 1010.6
20260503201028 30 49 6.4 9.7 0.00 0.00 0.00 33 1011.0
20260503200524 31 84 1.6 4.8 0.00 0.00 0.00 35 1010.6
20260503200021 30 157 1.6 3.2 0.00 0.00 0.00 37 1010.7
20260503195519 30 117 1.6 4.8 0.00 0.00 0.00 35 1010.8
20260503195015 30 72 1.6 4.8 0.00 0.00 0.00 35 1011.0
20260503194513 30 212 4.8 8.0 0.00 0.00 0.00 38 1011.1
20260503194012 28 143 4.8 4.8 0.00 0.00 0.00 41 1011.1
20260503193509 29 146 4.8 4.8 0.00 0.00 0.00 38 1011.0
20260503193004 28 135 1.6 8.0 0.00 0.00 0.00 39 1011.1
20260503192501 28 98 3.2 4.8 0.00 0.00 0.00 40 1011.1
20260503191956 28 69 3.2 4.8 0.00 0.00 0.00 36 1011.4
20260503191454 29 115 4.8 4.8 0.00 0.00 0.00 35 1011.4
20260503190950 28 2 6.4 9.7 0.00 0.00 0.00 37 1011.5
20260503190448 28 5 1.6 8.0 0.00 0.00 0.00 37 1011.5
20260503185945 29 158 1.6 8.0 0.00 0.00 0.00 39 1011.5
20260503185441 28 325 4.8 8.0 0.00 0.00 0.00 37 1011.6
20260503184940 28 121 4.8 8.0 0.00 0.00 0.00 37 1011.6
20260503184437 28 151 1.6 3.2 0.00 0.00 0.00 37 1011.6
20260503183933 27 199 3.2 8.0 0.00 0.00 0.00 39 1011.6
20260503183430 27 132 1.6 4.8 0.00 0.00 0.00 41 1011.7
20260503182927 27 146 1.6 4.8 0.00 0.00 0.00 42 1011.9
20260503182426 26 84 3.2 4.8 0.00 0.00 0.00 43 1012.0
20260503181923 27 157 3.2 8.0 0.00 0.00 0.00 41 1011.8
20260503181420 27 159 0.0 3.2 0.00 0.00 0.00 38 1011.9
20260503180916 27 113 3.2 3.2 0.00 0.00 0.00 43 1011.9
20260503180415 27 148 1.6 4.8 0.00 0.00 0.00 46 1012.0
20260503175911 26 163 3.2 3.2 0.00 0.00 0.00 45 1011.8
20260503175409 26 123 1.6 4.8 0.00 0.00 0.00 45 1011.8
20260503174904 26 131 0.0 1.6 0.00 0.00 0.00 47 1012.0
20260503174403 25 148 1.6 3.2 0.00 0.00 0.00 45 1012.2
20260503173857 26 86 1.6 3.2 0.00 0.00 0.00 51 1012.3
20260503173354 24 154 0.0 1.6 0.00 0.00 0.00 53 1012.1
20260503172850 24 160 0.0 3.2 0.00 0.00 0.00 54 1012.2
20260503172348 25 147 1.6 3.2 0.00 0.00 0.00 54 1012.2
20260503171844 23 136 1.6 3.2 0.00 0.00 0.00 56 1012.1
20260503171341 23 123 3.2 4.8 0.00 0.00 0.00 56 1012.3
20260503170838 23 272 4.8 8.0 0.00 0.00 0.00 56 1012.2
20260503170335 23 152 1.6 1.6 0.00 0.00 0.00 56 1012.1
20260503150727 17 146 1.6 3.2 0.00 0.00 0.00 77 1012.5
20260503150223 17 128 1.6 3.2 0.00 0.00 0.00 80 1012.6
20260503140148 11 139 0.0 0.0 0.00 0.00 0.00 98 1012.4
20260503131117 10 150 1.6 1.6 0.00 0.00 0.00 99 1012.2
20260503130615 10 136 0.0 0.0 0.00 0.00 0.00 99 1011.9
20260503130112 10 141 0.0 0.0 0.00 0.00 0.00 99 1012.1
20260503110505 10 151 0.0 0.0 0.00 0.00 0.00 99 1012.7
20260503090356 11 153 0.0 0.0 0.00 0.00 0.00 98 1013.1
20260503081323 12 134 0.0 0.0 0.00 0.00 0.00 97 1013.2
20260503080820 12 148 0.0 0.0 0.00 0.00 0.00 96 1013.0
20260503080317 12 155 0.0 0.0 0.00 0.00 0.00 96 1013.1
20260503072753 13 146 0.0 0.0 0.00 0.00 0.00 95 1013.2
20260503072250 13 159 0.0 1.6 0.00 0.00 0.00 94 1013.2
20260503071746 13 148 0.0 1.6 0.00 0.00 0.00 94 1013.2
20260503071244 13 148 0.0 0.0 0.00 0.00 0.00 94 1013.2
20260503070740 13 155 1.6 1.6 0.00 0.00 0.00 94 1013.1
20260503070238 13 146 0.0 0.0 0.00 0.00 0.00 93 1012.8
20260503060157 15 2 4.8 4.8 0.00 0.00 0.00 89 1012.8
20260503054644 15 127 0.0 1.6 0.00 0.00 0.00 87 1012.8
20260503054141 15 151 0.0 4.8 0.00 0.00 0.00 87 1012.9
20260503053639 15 44 3.2 3.2 0.00 0.00 0.00 86 1013.1
20260503053138 15 104 1.6 1.6 0.00 0.00 0.00 86 1013.3
20260503052634 16 148 0.0 1.6 0.00 0.00 0.00 86 1013.3
20260503052130 15 105 1.6 3.2 0.00 0.00 0.00 86 1013.4
20260503051625 16 143 0.0 1.6 0.00 0.00 0.00 86 1013.1
20260503051124 16 143 0.0 1.6 0.00 0.00 0.00 85 1013.2
20260503050620 16 114 0.0 1.6 0.00 0.00 0.00 85 1013.2
20260503050117 16 68 3.2 3.2 0.00 0.00 0.00 84 1013.3
20260503045614 16 185 1.6 3.2 0.00 0.00 0.00 84 1013.2
20260503045111 16 160 4.8 4.8 0.00 0.00 0.00 84 1013.1
20260503044608 16 176 1.6 3.2 0.00 0.00 0.00 84 1013.3
20260503044105 16 134 1.6 1.6 0.00 0.00 0.00 84 1013.4
20260503043601 16 157 1.6 4.8 0.00 0.00 0.00 83 1013.4
20260503043058 16 147 0.0 1.6 0.00 0.00 0.00 82 1013.4
20260503042555 16 146 0.0 0.0 0.00 0.00 0.00 81 1013.3
20260503042051 16 164 1.6 1.6 0.00 0.00 0.00 81 1013.3
20260503041548 16 158 0.0 0.0 0.00 0.00 0.00 80 1013.3
20260503041046 17 155 0.0 1.6 0.00 0.00 0.00 80 1013.4
20260503040543 17 154 0.0 3.2 0.00 0.00 0.00 79 1013.4
20260503040040 17 165 1.6 1.6 0.00 0.00 0.00 79 1013.3
20260503035537 17 152 0.0 1.6 0.00 0.00 0.00 79 1013.0
20260503035035 17 225 3.2 3.2 0.00 0.00 0.00 78 1013.1
20260503034531 17 270 3.2 4.8 0.00 0.00 0.00 78 1013.1
20260503034029 17 182 1.6 3.2 0.00 0.00 0.00 78 1013.1
20260503033526 17 187 3.2 4.8 0.00 0.00 0.00 78 1013.0
20260503033024 17 162 3.2 8.0 0.00 0.00 0.00 77 1013.0
20260503032522 17 252 3.2 8.0 0.00 0.00 0.00 77 1013.0
20260503032020 17 192 3.2 4.8 0.00 0.00 0.00 77 1013.3
20260503031517 17 223 6.4 8.0 0.00 0.00 0.00 77 1012.7
20260503031014 17 312 4.8 4.8 0.00 0.00 0.00 76 1012.9
20260503030510 18 201 4.8 11.3 0.00 0.00 0.00 75 1013.0
20260503030008 18 252 4.8 9.7 0.00 0.00 0.00 75 1012.9
20260503025504 18 218 4.8 8.0 0.00 0.00 0.00 76 1012.9
20260503025002 18 265 4.8 8.0 0.00 0.00 0.00 76 1012.8
20260503024458 19 239 6.4 8.0 0.00 0.00 0.00 74 1012.8
20260503023955 20 169 1.6 4.8 0.00 0.00 0.00 74 1012.7
20260503023452 20 165 3.2 4.8 0.00 0.00 0.00 73 1012.7
20260503022949 20 201 1.6 3.2 0.00 0.00 0.00 73 1012.7
20260503022444 20 174 1.6 3.2 0.00 0.00 0.00 74 1012.5
20260503021940 20 154 3.2 8.0 0.00 0.00 0.00 75 1012.5
20260503021436 20 154 1.6 3.2 0.00 0.00 0.00 75 1012.6
20260503020934 20 167 1.6 3.2 0.00 0.00 0.00 74 1012.3
20260503020432 20 170 1.6 3.2 0.00 0.00 0.00 73 1012.1
20260503015928 20 160 1.6 3.2 0.00 0.00 0.00 72 1012.0
20260503015424 20 156 1.6 3.2 0.00 0.00 0.00 72 1012.0
20260503014921 20 167 1.6 3.2 0.00 0.00 0.00 72 1012.0
20260503014418 20 119 1.6 3.2 0.00 0.00 0.00 73 1012.0
20260503013916 20 179 1.6 3.2 0.00 0.00 0.00 72 1012.1
20260503013413 20 177 3.2 4.8 0.00 0.00 0.00 72 1011.9
20260503012910 20 178 4.8 4.8 0.00 0.00 0.00 71 1011.9
20260503012408 20 167 3.2 4.8 0.00 0.00 0.00 70 1011.8
20260503011904 20 152 4.8 4.8 0.00 0.00 0.00 70 1011.8
20260503011401 21 143 3.2 4.8 0.00 0.00 0.00 69 1011.7
20260503010857 21 185 4.8 4.8 0.00 0.00 0.00 68 1011.7
20260503010354 21 158 1.6 3.2 0.00 0.00 0.00 67 1011.6
20260503005851 21 156 1.6 3.2 0.00 0.00 0.00 68 1011.8
20260503005349 21 170 1.6 3.2 0.00 0.00 0.00 67 1011.8
20260503004845 21 112 3.2 4.8 0.00 0.00 0.00 66 1011.8
20260503004342 21 149 1.6 4.8 0.00 0.00 0.00 67 1011.9
20260503003840 21 152 1.6 4.8 0.00 0.00 0.00 66 1011.9
20260503003336 21 155 3.2 4.8 0.00 0.00 0.00 66 1011.8
20260503002833 21 155 1.6 3.2 0.00 0.00 0.00 67 1011.8
20260503002331 21 152 3.2 4.8 0.00 0.00 0.00 66 1012.0
20260503001827 22 135 3.2 4.8 0.00 0.00 0.00 64 1011.9
20260503001323 21 178 3.2 4.8 0.00 0.00 0.00 63 1011.7
20260503000821 22 179 4.8 8.0 0.00 0.00 0.00 62 1011.7
20260503000319 22 145 0.0 1.6 0.00 0.00 0.00 62 1011.8
20260502235815 22 160 1.6 3.2 0.00 0.00 0.00 62 1011.9
20260502235313 22 168 3.2 8.0 0.00 0.00 0.00 62 1011.7
20260502234809 21 134 0.0 3.2 0.00 0.00 0.00 63 1012.0
20260502234306 23 217 8.0 11.3 0.00 0.00 0.00 59 1012.0
20260502233802 22 177 3.2 3.2 0.00 0.00 0.00 60 1012.3
20260502233259 22 121 3.2 3.2 0.00 0.00 0.00 60 1012.4
20260502232755 21 175 1.6 3.2 0.00 0.00 0.00 64 1012.4
20260502232252 22 117 1.6 3.2 0.00 0.00 0.00 62 1012.4
20260502231749 21 129 1.6 3.2 0.00 0.00 0.00 62 1012.4
20260502231246 21 137 1.6 3.2 0.00 0.00 0.00 62 1012.5
20260502230745 21 89 3.2 3.2 0.00 0.00 0.00 63 1012.5
20260502230243 20 71 1.6 3.2 0.00 0.00 0.00 64 1012.6
20260502225739 20 143 3.2 3.2 0.00 0.00 0.00 64 1012.7
20260502225236 20 150 3.2 4.8 0.00 0.00 0.00 64 1012.8
20260502224732 20 143 0.0 1.6 0.00 0.00 0.00 64 1012.8
20260502224229 21 158 1.6 3.2 0.00 0.00 0.00 64 1012.9
20260502223726 20 51 3.2 8.0 0.00 0.00 0.00 66 1013.0
20260502223224 20 116 3.2 8.0 0.00 0.00 0.00 64 1013.4
20260502222722 20 141 1.6 8.0 0.00 0.00 0.00 64 1013.2
20260502222218 21 342 6.4 9.7 0.00 0.00 0.00 62 1013.3
20260502221714 21 82 4.8 8.0 0.00 0.00 0.00 63 1013.4
20260502221211 21 356 3.2 9.7 0.00 0.00 0.00 61 1013.4
20260502220707 21 20 6.4 11.3 0.00 0.00 0.00 62 1013.6
20260502220204 21 88 1.6 9.7 0.00 0.00 0.00 61 1013.6